Weslaco, TX

9:12 AM CDT on April 29, 2017 (GMT -0500)
Weslaco

Weather History for KT65 - October, 2012

Change the Weather History Date:

Monday, October 8, 2012

  Actual Average (KMFE) Record (KMFE)
Temperature  
Mean Temperature 64 °F -  
Max Temperature 69 °F 84 °F 97 °F (2009)
Min Temperature 60 °F 66 °F 46 °F (2000)
Growing Degree Days 14 (Base 50)    
Moisture  
Dew Point 51 °F    
Average Humidity 57    
Maximum Humidity 68    
Minimum Humidity 46    
Precipitation  
Precipitation 0.00 in - - ()
Sea Level Pressure  
Sea Level Pressure 30.12 in    
Wind  
Wind Speed 10 mph (NNW)    
Max Wind Speed 14 mph    
Max Gust Speed 20 mph    
Visibility 10 miles    
Events      
Averages and records for this station are not official NWS values.
T = Trace of Precipitation, MM = Missing Value Source: NWS Daily Summary

Daily Weather History Graph

Daily Weather History Graph

Search for Another Location

Airport or City:

Trip Planner

Search our weather history database for the weather conditions in past years. The results will help you decide how hot, cold, wet, or windy it might be!

Date:

Astronomy

Oct. 08, 2012 Rise Set
Actual Time 7:27 AM CDT 7:10 PM CDT
Civil Twilight 7:04 AM CDT 7:33 PM CDT
Nautical Twilight 6:37 AM CDT 8:00 PM CDT
Astronomical Twilight 6:11 AM CDT 8:26 PM CDT
Moon 12:45 AM CDT (10/8) 2:25 PM CDT (10/8)
Length of Visible Light 12h 28m
Length of Day
11h 42m
Last Quarter, 46% of the Moon is Illuminated
Oct 8
Last Quarter
Oct 15
New
Oct 21
First Quarter
Oct 29
Full
Nov 6
Last Quarter

Hourly Weather History & Observations

Time (CDT) Temp. Dew Point Humidity Pressure Visibility Wind Dir Wind Speed Gust Speed Precip Events Conditions
12:15 AM 66.2 °F 55.4 °F 68% 30.10 in 10.0 mi North 12.7 mph 17.3 mph N/A   Overcast
12:35 AM 66.2 °F 53.6 °F 64% 30.10 in 10.0 mi NNW 10.4 mph 16.1 mph N/A   Overcast
12:55 AM 66.2 °F 53.6 °F 64% 30.10 in 10.0 mi North 10.4 mph 17.3 mph N/A   Overcast
1:15 AM 64.4 °F 53.6 °F 68% 30.10 in 10.0 mi NNW 9.2 mph - N/A   Overcast
1:35 AM 64.4 °F 53.6 °F 68% 30.11 in 10.0 mi North 13.8 mph 19.6 mph N/A   Overcast
1:55 AM 64.4 °F 53.6 °F 68% 30.10 in 10.0 mi NNW 13.8 mph 18.4 mph N/A   Overcast
2:35 AM 64.4 °F 51.8 °F 64% 30.10 in 10.0 mi North 5.8 mph 9.2 mph N/A   Overcast
3:15 AM 64.4 °F 51.8 °F 64% 30.10 in 10.0 mi North 10.4 mph - N/A   Overcast
3:35 AM 64.4 °F 51.8 °F 64% 30.10 in 10.0 mi North 6.9 mph - N/A   Overcast
3:55 AM 64.4 °F 50.0 °F 59% 30.09 in 10.0 mi North 11.5 mph - N/A   Overcast
4:15 AM 64.4 °F 50.0 °F 59% 30.09 in 10.0 mi NNW 10.4 mph 16.1 mph N/A   Overcast
4:35 AM 64.4 °F 51.8 °F 64% 30.10 in 10.0 mi North 12.7 mph 16.1 mph N/A   Overcast
4:55 AM 64.4 °F 51.8 °F 64% 30.10 in 10.0 mi North 9.2 mph 17.3 mph N/A   Overcast
5:35 AM 62.6 °F 51.8 °F 68% 30.11 in 10.0 mi North 12.7 mph 16.1 mph N/A   Overcast
5:55 AM 62.6 °F 50.0 °F 63% 30.12 in 10.0 mi North 10.4 mph - N/A   Overcast
6:15 AM 62.6 °F 50.0 °F 63% 30.12 in 10.0 mi North 12.7 mph 18.4 mph N/A   Overcast
6:35 AM 62.6 °F 50.0 °F 63% 30.12 in 10.0 mi North 10.4 mph 18.4 mph N/A   Overcast
6:55 AM 62.6 °F 48.2 °F 59% 30.13 in 10.0 mi North 13.8 mph 17.3 mph N/A   Overcast
7:15 AM 62.6 °F 50.0 °F 63% 30.13 in 10.0 mi North 10.4 mph - N/A   Overcast
7:35 AM 60.8 °F 48.2 °F 63% 30.14 in 10.0 mi NNW 10.4 mph - N/A   Overcast
7:55 AM 60.8 °F 48.2 °F 63% 30.16 in 10.0 mi NNW 11.5 mph 19.6 mph N/A   Overcast
8:15 AM 60.8 °F 48.2 °F 63% 30.16 in 10.0 mi NNW 13.8 mph 17.3 mph N/A   Overcast
8:55 AM 60.8 °F 48.2 °F 63% 30.17 in 10.0 mi North 11.5 mph 18.4 mph N/A   Overcast
9:35 AM 62.6 °F 46.4 °F 55% 30.18 in 7.0 mi NNW 12.7 mph 16.1 mph N/A   Overcast
9:55 AM 62.6 °F 46.4 °F 55% 30.18 in 10.0 mi NNW 11.5 mph 19.6 mph N/A   Overcast
10:15 AM 62.6 °F 46.4 °F 55% 30.19 in 10.0 mi North 13.8 mph - N/A   Overcast
10:35 AM 62.6 °F 46.4 °F 55% 30.19 in 10.0 mi North 13.8 mph 18.4 mph N/A   Overcast
10:55 AM 64.4 °F 46.4 °F 52% 30.19 in 7.0 mi North 9.2 mph 17.3 mph N/A   Overcast
11:15 AM 64.4 °F 46.4 °F 52% 30.19 in 7.0 mi NNW 13.8 mph 19.6 mph N/A   Overcast
11:35 AM 64.4 °F 46.4 °F 52% 30.19 in 10.0 mi NNW 13.8 mph 18.4 mph N/A   Overcast
11:55 AM 64.4 °F 46.4 °F 52% 30.19 in 10.0 mi NNW 12.7 mph - N/A   Overcast
12:15 PM 64.4 °F 46.4 °F 52% 30.19 in 10.0 mi NNW 12.7 mph 17.3 mph N/A   Overcast
12:35 PM 64.4 °F 46.4 °F 52% 30.18 in 10.0 mi NNW 10.4 mph - N/A   Overcast
12:55 PM 66.2 °F 48.2 °F 52% 30.18 in 10.0 mi North 8.1 mph - N/A   Overcast
1:15 PM 66.2 °F 48.2 °F 52% 30.17 in 10.0 mi North 8.1 mph - N/A   Overcast
1:35 PM 68.0 °F 50.0 °F 52% 30.16 in 10.0 mi NNW 12.7 mph 17.3 mph N/A   Overcast
1:55 PM 68.0 °F 50.0 °F 52% 30.15 in 10.0 mi North 9.2 mph 17.3 mph N/A   Overcast
2:35 PM 68.0 °F 48.2 °F 49% 30.13 in 10.0 mi North 8.1 mph - N/A   Overcast
2:55 PM 69.8 °F 48.2 °F 46% 30.12 in 10.0 mi North 10.4 mph - N/A   Overcast
3:15 PM 68.0 °F 50.0 °F 52% 30.11 in 10.0 mi NNW 6.9 mph - N/A   Overcast
3:35 PM 69.8 °F 50.0 °F 49% 30.11 in 10.0 mi North 9.2 mph - N/A   Overcast
3:55 PM 69.8 °F 50.0 °F 49% 30.10 in 10.0 mi NNW 8.1 mph - N/A   Overcast
4:15 PM 69.8 °F 50.0 °F 49% 30.09 in 10.0 mi North 6.9 mph - N/A   Overcast
4:35 PM 69.8 °F 50.0 °F 49% 30.09 in 7.0 mi NNW 6.9 mph - N/A   Overcast
4:55 PM 69.8 °F 50.0 °F 49% 30.09 in 10.0 mi North 6.9 mph - N/A   Overcast
5:15 PM 69.8 °F 50.0 °F 49% 30.09 in 10.0 mi North 6.9 mph - N/A   Overcast
5:35 PM 69.8 °F 51.8 °F 53% 30.09 in 10.0 mi North 5.8 mph - N/A   Overcast
5:55 PM 69.8 °F 51.8 °F 53% 30.09 in 10.0 mi NNE 4.6 mph - N/A   Overcast
6:15 PM 69.8 °F 51.8 °F 53% 30.08 in 10.0 mi North 6.9 mph - N/A   Overcast
6:35 PM 69.8 °F 51.8 °F 53% 30.08 in 10.0 mi North 3.5 mph - N/A   Overcast
6:55 PM 69.8 °F 51.8 °F 53% 30.08 in 10.0 mi North 3.5 mph - N/A   Overcast
7:15 PM 69.8 °F 51.8 °F 53% 30.09 in 10.0 mi Calm Calm - N/A   Overcast
7:35 PM 68.0 °F 51.8 °F 56% 30.09 in 10.0 mi NNW 3.5 mph - N/A   Overcast
7:55 PM 68.0 °F 51.8 °F 56% 30.09 in 10.0 mi Calm Calm - N/A   Overcast
8:15 PM 68.0 °F 51.8 °F 56% 30.09 in 10.0 mi NNW 3.5 mph - N/A   Overcast
8:55 PM 68.0 °F 51.8 °F 56% 30.09 in 10.0 mi Calm Calm - N/A   Overcast
9:15 PM 68.0 °F 53.6 °F 60% 30.10 in 10.0 mi Calm Calm - N/A   Overcast
9:35 PM 69.8 °F 53.6 °F 56% 30.10 in 10.0 mi Calm Calm - N/A   Overcast
9:55 PM 69.8 °F 53.6 °F 56% 30.09 in 10.0 mi Calm Calm - N/A   Overcast
10:15 PM 69.8 °F 53.6 °F 56% 30.09 in 10.0 mi North 3.5 mph - N/A   Overcast
10:55 PM 68.0 °F 55.4 °F 64% 30.09 in 10.0 mi Calm Calm - N/A   Overcast
11:15 PM 68.0 °F 55.4 °F 64% 30.10 in 10.0 mi NNW 3.5 mph - N/A   Overcast
11:35 PM 68.0 °F 55.4 °F 64% 30.10 in 10.0 mi NNW 3.5 mph - N/A   Overcast
11:55 PM 68.0 °F 55.4 °F 64% 30.10 in 10.0 mi Calm Calm - N/A   Overcast